Total_Precipitation_Accumulation
1.07 1.06 1.03 0.96 0.96 0.96 0.97 1.04 1.13 1.00 0.73 0.54 0.51 0.52 0.55 0.59 0.67 0.66 0.60 0.71 0.72 0.67 0.68 0.69 0.66 0.62 0.59 0.59 0.64 0.73 0.77 0.77 0.77 0.80 0.83 0.82 0.84 0.92
0.99 1.02 1.00 0.93 0.92 0.93 0.97 1.01 1.09 1.14 0.96 0.63 0.53 0.53 0.57 0.59 0.66 0.60 0.56 0.66 0.64 0.62 0.61 0.59 0.57 0.54 0.51 0.50 0.51 0.57 0.62 0.65 0.68 0.74 0.82 0.89 0.92 0.98
0.90 0.92 0.92 0.91 0.93 0.93 0.94 0.98 1.03 1.10 1.08 0.80 0.65 0.64 0.68 0.67 0.65 0.59 0.53 0.51 0.50 0.57 0.54 0.50 0.49 0.46 0.45 0.44 0.44 0.45 0.47 0.51 0.58 0.66 0.75 0.84 0.90 0.91
0.78 0.82 0.83 0.85 0.86 0.88 0.93 0.97 0.99 1.01 1.04 0.91 0.71 0.63 0.61 0.59 0.57 0.55 0.50 0.45 0.41 0.49 0.47 0.44 0.42 0.38 0.36 0.36 0.39 0.42 0.43 0.44 0.48 0.53 0.58 0.67 0.75 0.80
0.70 0.72 0.74 0.79 0.84 0.84 0.85 0.88 0.88 0.88 0.90 0.88 0.72 0.58 0.52 0.49 0.49 0.45 0.40 0.38 0.35 0.38 0.40 0.38 0.38 0.37 0.36 0.35 0.37 0.37 0.36 0.34 0.34 0.37 0.42 0.49 0.55 0.62
0.67 0.69 0.70 0.72 0.74 0.77 0.80 0.81 0.81 0.80 0.81 0.83 0.77 0.67 0.59 0.53 0.54 0.50 0.44 0.38 0.35 0.32 0.37 0.36 0.37 0.36 0.32 0.29 0.27 0.28 0.29 0.29 0.31 0.36 0.40 0.44 0.48 0.53
0.68 0.68 0.70 0.75 0.76 0.75 0.74 0.73 0.74 0.78 0.81 0.87 0.83 0.70 0.57 0.51 0.49 0.44 0.43 0.42 0.41 0.38 0.38 0.34 0.30 0.27 0.24 0.24 0.25 0.26 0.28 0.31 0.35 0.38 0.42 0.47 0.50 0.54
0.66 0.64 0.63 0.66 0.65 0.65 0.64 0.64 0.69 0.76 0.86 0.90 0.78 0.62 0.47 0.41 0.41 0.45 0.50 0.54 0.47 0.32 0.32 0.32 0.30 0.28 0.23 0.20 0.26 0.28 0.29 0.30 0.31 0.33 0.36 0.40 0.44 0.48
0.62 0.58 0.53 0.51 0.53 0.46 0.48 0.52 0.55 0.62 0.65 0.59 0.52 0.45 0.41 0.38 0.47 0.55 0.54 0.51 0.40 0.28 0.34 0.38 0.33 0.30 0.24 0.23 0.28 0.27 0.27 0.29 0.31 0.34 0.36 0.38 0.40 0.44
0.48 0.44 0.40 0.36 0.35 0.36 0.38 0.46 0.45 0.43 0.42 0.38 0.36 0.33 0.33 0.36 0.45 0.55 0.56 0.54 0.43 0.34 0.34 0.37 0.29 0.26 0.22 0.22 0.28 0.29 0.28 0.31 0.36 0.40 0.41 0.41 0.42 0.44
0.36 0.33 0.33 0.31 0.36 0.42 0.42 0.44 0.35 0.30 0.33 0.38 0.40 0.38 0.39 0.38 0.40 0.51 0.60 0.66 0.57 0.37 0.29 0.30 0.26 0.25 0.24 0.23 0.25 0.30 0.30 0.31 0.32 0.34 0.36 0.38 0.41 0.44
0.27 0.28 0.32 0.32 0.38 0.45 0.42 0.37 0.31 0.27 0.29 0.33 0.36 0.38 0.37 0.38 0.43 0.43 0.57 0.78 0.67 0.46 0.25 0.28 0.30 0.35 0.48 0.28 0.23 0.25 0.27 0.29 0.31 0.32 0.35 0.38 0.42 0.45
0.23 0.24 0.26 0.36 0.42 0.44 0.38 0.31 0.32 0.35 0.32 0.31 0.33 0.34 0.36 0.38 0.40 0.38 0.43 0.74 0.92 0.64 0.29 0.49 0.63 0.45 0.58 0.40 0.24 0.23 0.24 0.26 0.29 0.32 0.35 0.40 0.46 0.58
0.21 0.21 0.24 0.36 0.38 0.36 0.34 0.33 0.37 0.36 0.29 0.32 0.35 0.34 0.32 0.31 0.31 0.32 0.34 0.39 0.53 0.61 0.42 0.66 0.96 0.70 0.77 0.60 0.31 0.23 0.23 0.25 0.32 0.40 0.45 0.52 0.56 0.61
0.23 0.25 0.28 0.30 0.29 0.30 0.32 0.36 0.35 0.31 0.30 0.32 0.33 0.31 0.29 0.30 0.32 0.35 0.37 0.37 0.36 0.35 0.37 0.45 0.68 0.74 0.87 0.82 0.50 0.29 0.29 0.28 0.32 0.46 0.52 0.55 0.56 0.60
0.26 0.26 0.26 0.25 0.26 0.27 0.29 0.31 0.32 0.33 0.36 0.37 0.33 0.31 0.32 0.34 0.37 0.38 0.42 0.43 0.45 0.39 0.35 0.34 0.42 0.67 0.81 0.61 0.61 0.49 0.40 0.46 0.42 0.51 0.59 0.60 0.64 0.68
0.34 0.29 0.27 0.26 0.25 0.25 0.26 0.27 0.29 0.33 0.37 0.36 0.39 0.40 0.38 0.38 0.36 0.36 0.42 0.47 0.51 0.42 0.36 0.35 0.37 0.44 0.53 0.56 0.59 0.48 0.44 0.51 0.60 0.71 0.79 0.80 0.73 0.78
0.42 0.33 0.27 0.25 0.25 0.25 0.26 0.28 0.31 0.34 0.38 0.43 0.45 0.47 0.49 0.47 0.43 0.37 0.39 0.46 0.49 0.42 0.38 0.37 0.42 0.51 0.49 0.44 0.48 0.56 0.57 0.64 0.71 0.78 0.91 1.03 0.87 0.76
0.40 0.31 0.24 0.22 0.23 0.26 0.29 0.33 0.34 0.35 0.41 0.49 0.54 0.57 0.59 0.55 0.51 0.47 0.43 0.45 0.44 0.40 0.39 0.41 0.52 0.76 0.79 0.50 0.34 0.50 0.77 0.84 0.80 0.84 0.92 1.07 1.18 0.98
0.30 0.25 0.23 0.23 0.26 0.30 0.34 0.37 0.40 0.42 0.45 0.49 0.53 0.57 0.64 0.65 0.59 0.53 0.50 0.51 0.53 0.47 0.41 0.38 0.46 0.76 1.09 0.93 0.66 0.53 0.62 0.89 1.09 1.15 0.98 0.85 0.89 0.88
0.22 0.22 0.25 0.29 0.34 0.37 0.40 0.42 0.46 0.48 0.48 0.52 0.54 0.57 0.64 0.72 0.64 0.55 0.54 0.52 0.57 0.56 0.50 0.40 0.40 0.55 0.80 0.94 0.79 0.55 0.56 0.65 0.93 1.29 1.25 1.05 0.85 0.76
0.23 0.26 0.30 0.35 0.42 0.47 0.48 0.49 0.49 0.47 0.48 0.52 0.54 0.56 0.61 0.70 0.70 0.63 0.60 0.61 0.56 0.56 0.53 0.44 0.42 0.50 0.65 0.83 0.70 0.51 0.50 0.49 0.49 0.58 0.90 1.34 1.75 1.81
0.29 0.32 0.36 0.41 0.47 0.51 0.52 0.51 0.50 0.46 0.47 0.54 0.58 0.58 0.62 0.65 0.63 0.66 0.66 0.67 0.66 0.60 0.55 0.51 0.45 0.46 0.50 0.56 0.61 0.54 0.47 0.44 0.41 0.45 0.63 0.80 1.06 1.30